STARLINK-32824, 62817

Orbit data source: Space-Track

STARLINK-32824, 62817 is a payload satellite owned by SpaceX/Seattle (US) in LEO that was launched on Fri, 24 Jan 2025 UTC via an FALCON 9 launch vehicle from the Air Force Western Test Range (AFWTR). Payload-class satellites include a variety of spacecraft equipped with specific instruments for various scientific and technological missions. These include communications satellites like Starlink; space stations such as the ISS; scientific satellites like the Hubble; Earth observation satellites from companies like Planet Labs, Umbra, and HawkEye 360; GPS; miniature CubeSats for education and research; and military/defense satellites.

Loading next visibility...
Identifier
62817, 2025-018M
Orbit
LEO
Country
Flag of USUS
Related business
Manufacturer
SpaceX/Seattle
Mission
Operational Commercial Communications
Bus & Motor
STARLINK V2M, Unknown motor
Mass
730 kg wet, ~700 kg dry
Launch date (UTC)
2025-01-24 (2 years ago)
Launch vehicle
FALCON 9
Launch site
Air Force Western Test Range (AFWTR)
Object type
Payload
Rocket body
Debris
Shape & HBR
Box + 2 Pan, 17.7 m
Radar Cross Section
33.884 m², Large (>1 m²)

Expand to show TLE details & history
Last TLE update: 11 hours ago

TLE from 11 hours ago
0 STARLINK-32824
1 62817U 25018M   26237.71210797  .00017718  00000-0  53433-3 0  9999
2 62817  53.1577 243.9945 0001762  88.3088 271.8116 15.34396311 90002
Epoch: 2026-08-25T17:05Z
TLE epoch observation values (Epoch: 2026-08-25T17:05:26.128Z)
Latitude
-0.00006°
Longitude
13.66006°
Altitude
463.577 km
Speed
7.636 km/s
True Right ascension
16h 15m 58s
True Declination
0° 00' 00"
Sunlit
Object was in daylight at epoch
Visualization orbit readout
Latitude
Unknown
Longitude
Unknown
Altitude
Unknown
Speed
Unknown
Apparent Right ascension
Unknown
Apparent Declination
Unknown
Sunlit
N/A
Visualization observer readout
Local Sidereal Time
19:08:37
Azimuth
Unknown
Elevation
Unknown
Doppler factor
Unknown
Orbital elements
Apogee altitude
464.177 km
Perigee altitude
461.766 km
Semi-major axis
6,841.108 km
Eccentricity
0.00018
Inclination
53.1577°
RAAN
243.9945°
Arg. of periapsis
88.3088°
True anomaly
271.79142°
Mean anomaly
271.8116°
Eccentric anomaly
271.80151°
Mean motion
3.83578 °/min
Orbital period
93.85 mins
BSTAR
0.00053433
Loading maneuver chart data...
Computing Atmospheric mass density...
Loading historical data...
Loading historical data...
Loading historical data...
Loading historical data...
Loading historical data...
Loading historical data...
Loading historical data...

Documentation

Showing up to 5 results
|